Year,Month,Day,Hour,Minute,Value (Times are PST for temperature in C)
2014,09,21,00,00,15.80
2014,09,21,00,01,15.80
2014,09,21,00,02,15.80
2014,09,21,00,03,15.80
2014,09,21,00,04,15.80
2014,09,21,00,05,15.90
2014,09,21,00,06,15.90
2014,09,21,00,07,15.90
2014,09,21,00,08,15.90
2014,09,21,00,09,15.90
2014,09,21,00,10,15.90
2014,09,21,00,11,15.90
2014,09,21,00,12,15.90
2014,09,21,00,13,15.90
2014,09,21,00,14,15.90
2014,09,21,00,15,15.90
2014,09,21,00,16,16.00
2014,09,21,00,17,16.00
2014,09,21,00,18,16.10
2014,09,21,00,19,16.10
2014,09,21,00,20,16.10
2014,09,21,00,21,16.20
2014,09,21,00,22,16.20
2014,09,21,00,23,16.30
2014,09,21,00,24,16.30
2014,09,21,00,25,16.40
2014,09,21,00,26,16.40
2014,09,21,00,27,16.40
2014,09,21,00,28,16.50
2014,09,21,00,29,16.50
2014,09,21,00,30,16.50
2014,09,21,00,31,16.50
2014,09,21,00,32,16.60
2014,09,21,00,33,16.60
2014,09,21,00,34,16.70
2014,09,21,00,35,16.70
2014,09,21,00,36,16.70
2014,09,21,00,37,16.70
2014,09,21,00,38,16.70
2014,09,21,00,39,16.70
2014,09,21,00,40,16.70
2014,09,21,00,41,16.70
2014,09,21,00,42,16.70
2014,09,21,00,43,16.70
2014,09,21,00,44,16.70
2014,09,21,00,45,16.70
2014,09,21,00,46,16.60
2014,09,21,00,47,16.60
2014,09,21,00,48,16.60
2014,09,21,00,49,16.60
2014,09,21,00,50,16.60
2014,09,21,00,51,16.60
2014,09,21,00,52,16.60
2014,09,21,00,53,16.60
2014,09,21,00,54,16.50
2014,09,21,00,55,16.50
2014,09,21,00,56,16.50
2014,09,21,00,57,16.50
2014,09,21,00,58,16.40
2014,09,21,00,59,16.40
2014,09,21,01,00,16.40
2014,09,21,01,01,16.40
2014,09,21,01,02,16.40
2014,09,21,01,03,16.40
2014,09,21,01,04,16.40
2014,09,21,01,05,16.40
2014,09,21,01,06,16.40
2014,09,21,01,07,16.40
2014,09,21,01,08,16.50
2014,09,21,01,09,16.50
2014,09,21,01,10,16.50
2014,09,21,01,11,16.60
2014,09,21,01,12,16.60
2014,09,21,01,13,16.60
2014,09,21,01,14,16.70
2014,09,21,01,15,16.70
2014,09,21,01,16,16.70
2014,09,21,01,17,16.70
2014,09,21,01,18,16.70
2014,09,21,01,19,16.70
2014,09,21,01,20,16.70
2014,09,21,01,21,16.70
2014,09,21,01,22,16.70
2014,09,21,01,23,16.70
2014,09,21,01,24,16.70
2014,09,21,01,25,16.70
2014,09,21,01,26,16.60
2014,09,21,01,27,16.60
2014,09,21,01,28,16.60
2014,09,21,01,29,16.60
2014,09,21,01,30,16.60
2014,09,21,01,31,16.60
2014,09,21,01,32,16.60
2014,09,21,01,33,16.50
2014,09,21,01,34,16.50
2014,09,21,01,35,16.60
2014,09,21,01,36,16.60
2014,09,21,01,37,16.60
2014,09,21,01,38,16.60
2014,09,21,01,39,16.50
2014,09,21,01,40,16.50
2014,09,21,01,41,16.50
2014,09,21,01,42,16.50
2014,09,21,01,43,16.40
2014,09,21,01,44,16.40
2014,09,21,01,45,16.40
2014,09,21,01,46,16.40
2014,09,21,01,47,16.40
2014,09,21,01,48,16.40
2014,09,21,01,49,16.40
2014,09,21,01,50,16.40
2014,09,21,01,51,16.40
2014,09,21,01,52,16.40
2014,09,21,01,53,16.40
2014,09,21,01,54,16.40
2014,09,21,01,55,16.40
2014,09,21,01,56,16.30
2014,09,21,01,57,16.30
2014,09,21,01,58,16.30
2014,09,21,01,59,16.30
2014,09,21,02,00,16.30
2014,09,21,02,01,16.30
2014,09,21,02,02,16.20
2014,09,21,02,03,16.20
2014,09,21,02,04,16.20
2014,09,21,02,05,16.20
2014,09,21,02,06,16.20
2014,09,21,02,07,16.20
2014,09,21,02,08,16.20
2014,09,21,02,09,16.10
2014,09,21,02,10,16.10
2014,09,21,02,11,16.10
2014,09,21,02,12,16.10
2014,09,21,02,13,16.20
2014,09,21,02,14,16.20
2014,09,21,02,15,16.20
2014,09,21,02,16,16.20
2014,09,21,02,17,16.20
2014,09,21,02,18,16.20
2014,09,21,02,19,16.10
2014,09,21,02,20,16.10
2014,09,21,02,21,16.10
2014,09,21,02,22,16.00
2014,09,21,02,23,16.00
2014,09,21,02,24,16.00
2014,09,21,02,25,16.00
2014,09,21,02,26,16.10
2014,09,21,02,27,16.10
2014,09,21,02,28,16.10
2014,09,21,02,29,16.10
2014,09,21,02,30,16.10
2014,09,21,02,31,16.20
2014,09,21,02,32,16.20
2014,09,21,02,33,16.30
2014,09,21,02,34,16.30
2014,09,21,02,35,16.30
2014,09,21,02,36,16.30
2014,09,21,02,37,16.30
2014,09,21,02,38,16.30
2014,09,21,02,39,16.30
2014,09,21,02,40,16.30
2014,09,21,02,41,16.30
2014,09,21,02,42,16.30
2014,09,21,02,43,16.30
2014,09,21,02,44,16.20
2014,09,21,02,45,16.20
2014,09,21,02,46,16.20
2014,09,21,02,47,16.20
2014,09,21,02,48,16.20
2014,09,21,02,49,16.20
2014,09,21,02,50,16.20
2014,09,21,02,51,16.10
2014,09,21,02,52,16.10
2014,09,21,02,53,16.10
2014,09,21,02,54,16.10
2014,09,21,02,55,16.20
2014,09,21,02,56,16.20
2014,09,21,02,57,16.20
2014,09,21,02,58,16.20
2014,09,21,02,59,16.20
2014,09,21,03,00,16.10
2014,09,21,03,01,16.10
2014,09,21,03,02,16.10
2014,09,21,03,03,16.10
2014,09,21,03,04,16.10
2014,09,21,03,05,16.10
2014,09,21,03,06,16.10
2014,09,21,03,07,16.00
2014,09,21,03,08,16.00
2014,09,21,03,09,15.90
2014,09,21,03,10,15.90
2014,09,21,03,11,15.90
2014,09,21,03,12,15.90
2014,09,21,03,13,15.90
2014,09,21,03,14,15.80
2014,09,21,03,15,15.80
2014,09,21,03,16,15.80
2014,09,21,03,17,15.80
2014,09,21,03,18,15.80
2014,09,21,03,19,15.80
2014,09,21,03,20,15.80
2014,09,21,03,21,15.70
2014,09,21,03,22,15.70
2014,09,21,03,23,15.70
2014,09,21,03,24,15.70
2014,09,21,03,25,15.70
2014,09,21,03,26,15.70
2014,09,21,03,27,15.70
2014,09,21,03,28,15.70
2014,09,21,03,29,15.70
2014,09,21,03,30,15.60
2014,09,21,03,31,15.60
2014,09,21,03,32,15.60
2014,09,21,03,33,15.50
2014,09,21,03,34,15.50
2014,09,21,03,35,15.40
2014,09,21,03,36,15.40
2014,09,21,03,37,15.40
2014,09,21,03,38,15.40
2014,09,21,03,39,15.40
2014,09,21,03,40,15.40
2014,09,21,03,41,15.40
2014,09,21,03,42,15.40
2014,09,21,03,43,15.40
2014,09,21,03,44,15.40
2014,09,21,03,45,15.40
2014,09,21,03,46,15.40
2014,09,21,03,47,15.40
2014,09,21,03,48,15.40
2014,09,21,03,49,15.40
2014,09,21,03,50,15.40
2014,09,21,03,51,15.40
2014,09,21,03,52,15.40
2014,09,21,03,53,15.40
2014,09,21,03,54,15.40
2014,09,21,03,55,15.30
2014,09,21,03,56,15.30
2014,09,21,03,57,15.30
2014,09,21,03,58,15.30
2014,09,21,03,59,15.30
2014,09,21,04,00,15.30
2014,09,21,04,01,15.30
2014,09,21,04,02,15.40
2014,09,21,04,03,15.40
2014,09,21,04,04,15.40
2014,09,21,04,05,15.40
2014,09,21,04,06,15.40
2014,09,21,04,07,15.40
2014,09,21,04,08,15.40
2014,09,21,04,09,15.40
2014,09,21,04,10,15.40
2014,09,21,04,11,15.40
2014,09,21,04,12,15.30
2014,09,21,04,13,15.30
2014,09,21,04,14,15.30
2014,09,21,04,15,15.30
2014,09,21,04,16,15.20
2014,09,21,04,17,15.20
2014,09,21,04,18,15.20
2014,09,21,04,19,15.20
2014,09,21,04,20,15.10
2014,09,21,04,21,15.10
2014,09,21,04,22,15.10
2014,09,21,04,23,15.00
2014,09,21,04,24,15.00
2014,09,21,04,25,15.00
2014,09,21,04,26,15.00
2014,09,21,04,27,14.90
2014,09,21,04,28,14.90
2014,09,21,04,29,14.90
2014,09,21,04,30,14.90
2014,09,21,04,31,14.80
2014,09,21,04,32,14.80
2014,09,21,04,33,14.80
2014,09,21,04,34,14.80
2014,09,21,04,35,14.80
2014,09,21,04,36,14.70
2014,09,21,04,37,14.70
2014,09,21,04,38,14.70
2014,09,21,04,39,14.60
2014,09,21,04,40,14.60
2014,09,21,04,41,14.60
2014,09,21,04,42,14.60
2014,09,21,04,43,14.50
2014,09,21,04,44,14.50
2014,09,21,04,45,14.50
2014,09,21,04,46,14.50
2014,09,21,04,47,14.50
2014,09,21,04,48,14.50
2014,09,21,04,49,14.50
2014,09,21,04,50,14.50
2014,09,21,04,51,14.50
2014,09,21,04,52,14.50
2014,09,21,04,53,14.50
2014,09,21,04,54,14.40
2014,09,21,04,55,14.40
2014,09,21,04,56,14.40
2014,09,21,04,57,14.40
2014,09,21,04,58,14.40
2014,09,21,04,59,14.40
2014,09,21,05,00,14.40
2014,09,21,05,01,14.40
2014,09,21,05,02,14.40
2014,09,21,05,03,14.40
2014,09,21,05,04,14.40
2014,09,21,05,05,14.50
2014,09,21,05,06,14.50
2014,09,21,05,07,14.50
2014,09,21,05,08,14.50
2014,09,21,05,09,14.50
2014,09,21,05,10,14.50
2014,09,21,05,11,14.50
2014,09,21,05,12,14.50
2014,09,21,05,13,14.50
2014,09,21,05,14,14.50
2014,09,21,05,15,14.50
2014,09,21,05,16,14.50
2014,09,21,05,17,14.50
2014,09,21,05,18,14.50
2014,09,21,05,19,14.50
2014,09,21,05,20,14.50
2014,09,21,05,21,14.40
2014,09,21,05,22,14.40
2014,09,21,05,23,14.40
2014,09,21,05,24,14.40
2014,09,21,05,25,14.40
2014,09,21,05,26,14.40
2014,09,21,05,27,14.40
2014,09,21,05,28,14.40
2014,09,21,05,29,14.40
2014,09,21,05,30,14.50
2014,09,21,05,31,14.50
2014,09,21,05,32,14.60
2014,09,21,05,33,14.60
2014,09,21,05,34,14.60
2014,09,21,05,35,14.60
2014,09,21,05,36,14.60
2014,09,21,05,37,14.70
2014,09,21,05,38,14.70
2014,09,21,05,39,14.70
2014,09,21,05,40,14.70
2014,09,21,05,41,14.70
2014,09,21,05,42,14.70
2014,09,21,05,43,14.70
2014,09,21,05,44,14.70
2014,09,21,05,45,14.70
2014,09,21,05,46,14.70
2014,09,21,05,47,14.60
2014,09,21,05,48,14.60
2014,09,21,05,49,14.60
2014,09,21,05,50,14.60
2014,09,21,05,51,14.60
2014,09,21,05,52,14.60
2014,09,21,05,53,14.60
2014,09,21,05,54,14.60
2014,09,21,05,55,14.60
2014,09,21,05,56,14.60
2014,09,21,05,57,14.60
2014,09,21,05,58,14.60
2014,09,21,05,59,14.60
2014,09,21,06,00,14.60
2014,09,21,06,01,14.60
2014,09,21,06,02,14.60
2014,09,21,06,03,14.60
2014,09,21,06,04,14.50
2014,09,21,06,05,14.50
2014,09,21,06,06,14.50
2014,09,21,06,07,14.50
2014,09,21,06,08,14.50
2014,09,21,06,09,14.40
2014,09,21,06,10,14.40
2014,09,21,06,11,14.40
2014,09,21,06,12,14.40
2014,09,21,06,13,14.40
2014,09,21,06,14,14.40
2014,09,21,06,15,14.30
2014,09,21,06,16,14.30
2014,09,21,06,17,14.30
2014,09,21,06,18,14.30
2014,09,21,06,19,14.20
2014,09,21,06,20,14.20
2014,09,21,06,21,14.20
2014,09,21,06,22,14.20
2014,09,21,06,23,14.10
2014,09,21,06,24,14.10
2014,09,21,06,25,14.10
2014,09,21,06,26,14.10
2014,09,21,06,27,14.10
2014,09,21,06,28,14.10
2014,09,21,06,29,14.10
2014,09,21,06,30,14.10
2014,09,21,06,31,14.10
2014,09,21,06,32,14.10
2014,09,21,06,33,14.10
2014,09,21,06,34,14.10
2014,09,21,06,35,14.10
2014,09,21,06,36,14.10
2014,09,21,06,37,14.10
2014,09,21,06,38,14.10
2014,09,21,06,39,14.20
2014,09,21,06,40,14.20
2014,09,21,06,41,14.20
2014,09,21,06,42,14.20
2014,09,21,06,43,14.30
2014,09,21,06,44,14.30
2014,09,21,06,45,14.30
2014,09,21,06,46,14.30
2014,09,21,06,47,14.30
2014,09,21,06,48,14.40
2014,09,21,06,49,14.40
2014,09,21,06,50,14.40
2014,09,21,06,51,14.50
2014,09,21,06,52,14.50
2014,09,21,06,53,14.60
2014,09,21,06,54,14.60
2014,09,21,06,55,14.60
2014,09,21,06,56,14.60
2014,09,21,06,57,14.70
2014,09,21,06,58,14.70
2014,09,21,06,59,14.70
2014,09,21,07,00,14.70
2014,09,21,07,01,14.70
2014,09,21,07,02,14.70
2014,09,21,07,03,14.70
2014,09,21,07,04,14.70
2014,09,21,07,05,14.70
2014,09,21,07,06,14.70
2014,09,21,07,07,14.70
2014,09,21,07,08,14.70
2014,09,21,07,09,14.70
2014,09,21,07,10,14.70
2014,09,21,07,11,14.70
2014,09,21,07,12,14.70
2014,09,21,07,13,14.70
2014,09,21,07,14,14.70
2014,09,21,07,15,14.70
2014,09,21,07,16,14.70
2014,09,21,07,17,14.70
2014,09,21,07,18,14.70
2014,09,21,07,19,14.70
2014,09,21,07,20,14.70
2014,09,21,07,21,14.70
2014,09,21,07,22,14.70
2014,09,21,07,23,14.70
2014,09,21,07,24,14.70
2014,09,21,07,25,14.70
2014,09,21,07,26,14.70
2014,09,21,07,27,14.80
2014,09,21,07,28,14.80
2014,09,21,07,29,14.70
2014,09,21,07,30,14.70
2014,09,21,07,31,14.70
2014,09,21,07,32,14.70
2014,09,21,07,33,14.70
2014,09,21,07,34,14.70
2014,09,21,07,35,14.80
2014,09,21,07,36,14.80
2014,09,21,07,37,14.80
2014,09,21,07,38,14.80
2014,09,21,07,39,14.80
2014,09,21,07,40,14.80
2014,09,21,07,41,14.80
2014,09,21,07,42,14.80
2014,09,21,07,43,14.80
2014,09,21,07,44,14.80
2014,09,21,07,45,14.80
2014,09,21,07,46,14.80
2014,09,21,07,47,14.90
2014,09,21,07,48,14.90
2014,09,21,07,49,14.90
2014,09,21,07,50,15.00
2014,09,21,07,51,15.00
2014,09,21,07,52,15.10
2014,09,21,07,53,15.10
2014,09,21,07,54,15.10
2014,09,21,07,55,15.20
2014,09,21,07,56,15.20
2014,09,21,07,57,15.30
2014,09,21,07,58,15.30
2014,09,21,07,59,15.40
2014,09,21,08,00,15.40
2014,09,21,08,01,15.50
2014,09,21,08,02,15.60
2014,09,21,08,03,15.70
2014,09,21,08,04,15.80
2014,09,21,08,05,15.80
2014,09,21,08,06,15.90
2014,09,21,08,07,16.00
2014,09,21,08,08,16.10
2014,09,21,08,09,16.20
2014,09,21,08,10,16.20
2014,09,21,08,11,16.30
2014,09,21,08,12,16.40
2014,09,21,08,13,16.50
2014,09,21,08,14,16.60
2014,09,21,08,15,16.60
2014,09,21,08,16,16.70
2014,09,21,08,17,16.80
2014,09,21,08,18,16.80
2014,09,21,08,19,16.80
2014,09,21,08,20,16.90
2014,09,21,08,21,17.00
2014,09,21,08,22,17.00
2014,09,21,08,23,17.10
2014,09,21,08,24,17.10
2014,09,21,08,25,17.20
2014,09,21,08,26,17.30
2014,09,21,08,27,17.30
2014,09,21,08,28,17.40
2014,09,21,08,29,17.40
2014,09,21,08,30,17.50
2014,09,21,08,31,17.50
2014,09,21,08,32,17.60
2014,09,21,08,33,17.60
2014,09,21,08,34,17.70
2014,09,21,08,35,17.70
2014,09,21,08,36,17.70
2014,09,21,08,37,17.80
2014,09,21,08,38,17.80
2014,09,21,08,39,17.90
2014,09,21,08,40,18.00
2014,09,21,08,41,18.00
2014,09,21,08,42,18.10
2014,09,21,08,43,18.20
2014,09,21,08,44,18.20
2014,09,21,08,45,18.30
2014,09,21,08,46,18.30
2014,09,21,08,47,18.30
2014,09,21,08,48,18.40
2014,09,21,08,49,18.40
2014,09,21,08,50,18.40
2014,09,21,08,51,18.40
2014,09,21,08,52,18.40
2014,09,21,08,53,18.40
2014,09,21,08,54,18.40
2014,09,21,08,55,18.40
2014,09,21,08,56,18.40
2014,09,21,08,57,18.40
2014,09,21,08,58,18.40
2014,09,21,08,59,18.40
2014,09,21,09,00,18.50
2014,09,21,09,01,18.50
2014,09,21,09,02,18.60
2014,09,21,09,03,18.60
2014,09,21,09,04,18.60
2014,09,21,09,05,18.70
2014,09,21,09,06,18.70
2014,09,21,09,07,18.80
2014,09,21,09,08,18.90
2014,09,21,09,09,19.00
2014,09,21,09,10,19.10
2014,09,21,09,11,19.10
2014,09,21,09,12,19.20
2014,09,21,09,13,19.30
2014,09,21,09,14,19.30
2014,09,21,09,15,19.40
2014,09,21,09,16,19.40
2014,09,21,09,17,19.40
2014,09,21,09,18,19.40
2014,09,21,09,19,19.40
2014,09,21,09,20,19.40
2014,09,21,09,21,19.30
2014,09,21,09,22,19.30
2014,09,21,09,23,19.20
2014,09,21,09,24,19.10
2014,09,21,09,25,19.10
2014,09,21,09,26,19.00
2014,09,21,09,27,18.90
2014,09,21,09,28,18.90
2014,09,21,09,29,18.90
2014,09,21,09,30,18.80
2014,09,21,09,31,18.80
2014,09,21,09,32,18.80
2014,09,21,09,33,18.80
2014,09,21,09,34,18.80
2014,09,21,09,35,18.80
2014,09,21,09,36,18.80
2014,09,21,09,37,18.80
2014,09,21,09,38,18.80
2014,09,21,09,39,18.80
2014,09,21,09,40,18.80
2014,09,21,09,41,18.80
2014,09,21,09,42,18.90
2014,09,21,09,43,18.90
2014,09,21,09,44,18.90
2014,09,21,09,45,18.90
2014,09,21,09,46,18.90
2014,09,21,09,47,18.90
2014,09,21,09,48,18.90
2014,09,21,09,49,18.90
2014,09,21,09,50,18.90
2014,09,21,09,51,19.00
2014,09,21,09,52,19.00
2014,09,21,09,53,19.00
2014,09,21,09,54,19.10
2014,09,21,09,55,19.10
2014,09,21,09,56,19.10
2014,09,21,09,57,19.10
2014,09,21,09,58,19.10
2014,09,21,09,59,19.10
2014,09,21,10,00,19.10
2014,09,21,10,01,19.10
2014,09,21,10,02,19.10
2014,09,21,10,03,19.00
2014,09,21,10,04,19.00
2014,09,21,10,05,19.00
2014,09,21,10,06,19.00
2014,09,21,10,07,19.00
2014,09,21,10,08,19.00
2014,09,21,10,09,19.00
2014,09,21,10,10,19.10
2014,09,21,10,11,19.10
2014,09,21,10,12,19.20
2014,09,21,10,13,19.20
2014,09,21,10,14,19.30
2014,09,21,10,15,19.30
2014,09,21,10,16,19.40
2014,09,21,10,17,19.40
2014,09,21,10,18,19.50
2014,09,21,10,19,19.50
2014,09,21,10,20,19.60
2014,09,21,10,21,19.60
2014,09,21,10,22,19.70
2014,09,21,10,23,19.70
2014,09,21,10,24,19.70
2014,09,21,10,25,19.70
2014,09,21,10,26,19.80
2014,09,21,10,27,19.80
2014,09,21,10,28,19.70
2014,09,21,10,29,19.70
2014,09,21,10,30,19.70
2014,09,21,10,31,19.60
2014,09,21,10,32,19.60
2014,09,21,10,33,19.60
2014,09,21,10,34,19.60
2014,09,21,10,35,19.60
2014,09,21,10,36,19.60
2014,09,21,10,37,19.70
2014,09,21,10,38,19.70
2014,09,21,10,39,19.70
2014,09,21,10,40,19.70
2014,09,21,10,41,19.70
2014,09,21,10,42,19.70
2014,09,21,10,43,19.80
2014,09,21,10,44,19.80
2014,09,21,10,45,19.80
2014,09,21,10,46,19.80
2014,09,21,10,47,19.90
2014,09,21,10,48,19.90
2014,09,21,10,49,19.90
2014,09,21,10,50,19.90
2014,09,21,10,51,19.90
2014,09,21,10,52,20.00
2014,09,21,10,53,20.00
2014,09,21,10,54,20.10
2014,09,21,10,55,20.10
2014,09,21,10,56,20.20
2014,09,21,10,57,20.20
2014,09,21,10,58,20.30
2014,09,21,10,59,20.30
2014,09,21,11,00,20.30
2014,09,21,11,01,20.30
2014,09,21,11,02,20.30
2014,09,21,11,03,20.30
2014,09,21,11,04,20.40
2014,09,21,11,05,20.40
2014,09,21,11,06,20.50
2014,09,21,11,07,20.60
2014,09,21,11,08,20.60
2014,09,21,11,09,20.70
2014,09,21,11,10,20.80
2014,09,21,11,11,20.80
2014,09,21,11,12,20.80
2014,09,21,11,13,20.80
2014,09,21,11,14,20.80
2014,09,21,11,15,20.80
2014,09,21,11,16,20.90
2014,09,21,11,17,21.00
2014,09,21,11,18,21.10
2014,09,21,11,19,21.20
2014,09,21,11,20,21.20
2014,09,21,11,21,21.30
2014,09,21,11,22,21.30
2014,09,21,11,23,21.40
2014,09,21,11,24,21.40
2014,09,21,11,25,21.40
2014,09,21,11,26,21.50
2014,09,21,11,27,21.50
2014,09,21,11,28,21.60
2014,09,21,11,29,21.60
2014,09,21,11,30,21.70
2014,09,21,11,31,21.70
2014,09,21,11,32,21.80
2014,09,21,11,33,21.90
2014,09,21,11,34,22.00
2014,09,21,11,35,22.10
2014,09,21,11,36,22.20
2014,09,21,11,37,22.30
2014,09,21,11,38,22.40
2014,09,21,11,39,22.50
2014,09,21,11,40,22.50
2014,09,21,11,41,22.60
2014,09,21,11,42,22.60
2014,09,21,11,43,22.60
2014,09,21,11,44,22.60
2014,09,21,11,45,22.70
2014,09,21,11,46,22.70
2014,09,21,11,47,22.70
2014,09,21,11,48,22.70
2014,09,21,11,49,22.70
2014,09,21,11,50,22.70
2014,09,21,11,51,22.70
2014,09,21,11,52,22.60
2014,09,21,11,53,22.60
2014,09,21,11,54,22.60
2014,09,21,11,55,22.60
2014,09,21,11,56,22.70
2014,09,21,11,57,22.70
2014,09,21,11,58,22.70
2014,09,21,11,59,22.80
2014,09,21,12,00,22.80
2014,09,21,12,01,22.90
2014,09,21,12,02,22.90
2014,09,21,12,03,22.90
2014,09,21,12,04,22.90
2014,09,21,12,05,23.00
2014,09,21,12,06,23.00
2014,09,21,12,07,23.10
2014,09,21,12,08,23.10
2014,09,21,12,09,23.20
2014,09,21,12,10,23.30
2014,09,21,12,11,23.30
2014,09,21,12,12,23.30
2014,09,21,12,13,23.30
2014,09,21,12,14,23.20
2014,09,21,12,15,23.00
2014,09,21,12,16,22.90
2014,09,21,12,17,22.90
2014,09,21,12,18,22.80
2014,09,21,12,19,22.70
2014,09,21,12,20,22.60
2014,09,21,12,21,22.50
2014,09,21,12,22,22.50
2014,09,21,12,23,22.40
2014,09,21,12,24,22.40
2014,09,21,12,25,22.30
2014,09,21,12,26,22.30
2014,09,21,12,27,22.30
2014,09,21,12,28,22.30
2014,09,21,12,29,22.30
2014,09,21,12,30,22.20
2014,09,21,12,31,22.10
2014,09,21,12,32,22.10
2014,09,21,12,33,22.00
2014,09,21,12,34,22.00
2014,09,21,12,35,21.90
2014,09,21,12,36,21.90
2014,09,21,12,37,21.90
2014,09,21,12,38,21.90
2014,09,21,12,39,21.80
2014,09,21,12,40,21.80
2014,09,21,12,41,21.70
2014,09,21,12,42,21.70
2014,09,21,12,43,21.60
2014,09,21,12,44,21.60
2014,09,21,12,45,21.50
2014,09,21,12,46,21.50
2014,09,21,12,47,21.50
2014,09,21,12,48,21.40
2014,09,21,12,49,21.40
2014,09,21,12,50,21.40
2014,09,21,12,51,21.40
2014,09,21,12,52,21.40
2014,09,21,12,53,21.40
2014,09,21,12,54,21.40
2014,09,21,12,55,21.40
2014,09,21,12,56,21.30
2014,09,21,12,57,21.30
2014,09,21,12,58,21.30
2014,09,21,12,59,21.30
2014,09,21,13,00,21.20
2014,09,21,13,01,21.30
2014,09,21,13,02,21.30
2014,09,21,13,03,21.30
2014,09,21,13,04,21.30
2014,09,21,13,05,21.30
2014,09,21,13,06,21.30
2014,09,21,13,07,21.40
2014,09,21,13,08,21.40
2014,09,21,13,09,21.40
2014,09,21,13,10,21.40
2014,09,21,13,11,21.40
2014,09,21,13,12,21.50
2014,09,21,13,13,21.60
2014,09,21,13,14,21.60
2014,09,21,13,15,21.70
2014,09,21,13,16,21.70
2014,09,21,13,17,21.70
2014,09,21,13,18,21.70
2014,09,21,13,19,21.70
2014,09,21,13,20,21.70
2014,09,21,13,21,21.70
2014,09,21,13,22,21.70
2014,09,21,13,23,21.80
2014,09,21,13,24,21.80
2014,09,21,13,25,21.80
2014,09,21,13,26,21.90
2014,09,21,13,27,22.00
2014,09,21,13,28,22.00
2014,09,21,13,29,22.10
2014,09,21,13,30,22.20
2014,09,21,13,31,22.20
2014,09,21,13,32,22.30
2014,09,21,13,33,22.40
2014,09,21,13,34,22.50
2014,09,21,13,35,22.60
2014,09,21,13,36,22.60
2014,09,21,13,37,22.70
2014,09,21,13,38,22.70
2014,09,21,13,39,22.70
2014,09,21,13,40,22.70
2014,09,21,13,41,22.80
2014,09,21,13,42,22.80
2014,09,21,13,43,22.80
2014,09,21,13,44,22.80
2014,09,21,13,45,22.90
2014,09,21,13,46,22.90
2014,09,21,13,47,22.90
2014,09,21,13,48,23.00
2014,09,21,13,49,23.00
2014,09,21,13,50,23.00
2014,09,21,13,51,23.00
2014,09,21,13,52,23.00
2014,09,21,13,53,22.90
2014,09,21,13,54,22.90
2014,09,21,13,55,22.80
2014,09,21,13,56,22.80
2014,09,21,13,57,22.80
2014,09,21,13,58,22.80
2014,09,21,13,59,22.80
2014,09,21,14,00,22.90
2014,09,21,14,01,22.90
2014,09,21,14,02,23.00
2014,09,21,14,03,23.10
2014,09,21,14,04,23.10
2014,09,21,14,05,23.10
2014,09,21,14,06,23.10
2014,09,21,14,07,23.10
2014,09,21,14,08,23.10
2014,09,21,14,09,23.10
2014,09,21,14,10,23.10
2014,09,21,14,11,23.10
2014,09,21,14,12,23.20
2014,09,21,14,13,23.20
2014,09,21,14,14,23.30
2014,09,21,14,15,23.30
2014,09,21,14,16,23.30
2014,09,21,14,17,23.40
2014,09,21,14,18,23.40
2014,09,21,14,19,23.50
2014,09,21,14,20,23.60
2014,09,21,14,21,23.70
2014,09,21,14,22,23.80
2014,09,21,14,23,23.80
2014,09,21,14,24,23.90
2014,09,21,14,25,23.90
2014,09,21,14,26,23.90
2014,09,21,14,27,23.80
2014,09,21,14,28,23.70
2014,09,21,14,29,23.70
2014,09,21,14,30,23.70
2014,09,21,14,31,23.80
2014,09,21,14,32,23.80
2014,09,21,14,33,23.80
2014,09,21,14,34,23.80
2014,09,21,14,35,23.80
2014,09,21,14,36,23.80
2014,09,21,14,37,23.80
2014,09,21,14,38,23.80
2014,09,21,14,39,23.80
2014,09,21,14,40,23.80
2014,09,21,14,41,23.80
2014,09,21,14,42,23.90
2014,09,21,14,43,23.90
2014,09,21,14,44,24.00
2014,09,21,14,45,24.10
2014,09,21,14,46,24.10
2014,09,21,14,47,24.10
2014,09,21,14,48,24.00
2014,09,21,14,49,23.90
2014,09,21,14,50,23.90
2014,09,21,14,51,23.90
2014,09,21,14,52,23.90
2014,09,21,14,53,23.90
2014,09,21,14,54,23.90
2014,09,21,14,55,23.80
2014,09,21,14,56,23.90
2014,09,21,14,57,23.90
2014,09,21,14,58,23.80
2014,09,21,14,59,23.80
2014,09,21,15,00,23.80
2014,09,21,15,01,23.80
2014,09,21,15,02,23.90
2014,09,21,15,03,23.90
2014,09,21,15,04,24.00
2014,09,21,15,05,24.00
2014,09,21,15,06,24.10
2014,09,21,15,07,24.10
2014,09,21,15,08,24.00
2014,09,21,15,09,24.00
2014,09,21,15,10,24.00
2014,09,21,15,11,24.10
2014,09,21,15,12,24.10
2014,09,21,15,13,24.10
2014,09,21,15,14,24.10
2014,09,21,15,15,24.10
2014,09,21,15,16,24.20
2014,09,21,15,17,24.20
2014,09,21,15,18,24.20
2014,09,21,15,19,24.20
2014,09,21,15,20,24.20
2014,09,21,15,21,24.20
2014,09,21,15,22,24.20
2014,09,21,15,23,24.20
2014,09,21,15,24,24.20
2014,09,21,15,25,24.20
2014,09,21,15,26,24.30
2014,09,21,15,27,24.30
2014,09,21,15,28,24.30
2014,09,21,15,29,24.30
2014,09,21,15,30,24.30
2014,09,21,15,31,24.30
2014,09,21,15,32,24.30
2014,09,21,15,33,24.30
2014,09,21,15,34,24.30
2014,09,21,15,35,24.30
2014,09,21,15,36,24.40
2014,09,21,15,37,24.50
2014,09,21,15,38,24.60
2014,09,21,15,39,24.60
2014,09,21,15,40,24.60
2014,09,21,15,41,24.60
2014,09,21,15,42,24.60
2014,09,21,15,43,24.60
2014,09,21,15,44,24.60
2014,09,21,15,45,24.70
2014,09,21,15,46,24.70
2014,09,21,15,47,24.70
2014,09,21,15,48,24.80
2014,09,21,15,49,24.80
2014,09,21,15,50,24.80
2014,09,21,15,51,24.90
2014,09,21,15,52,24.90
2014,09,21,15,53,24.90
2014,09,21,15,54,24.90
2014,09,21,15,55,24.90
2014,09,21,15,56,24.90
2014,09,21,15,57,25.00
2014,09,21,15,58,25.00
2014,09,21,15,59,25.00
2014,09,21,16,00,25.00
2014,09,21,16,01,25.00
2014,09,21,16,02,25.00
2014,09,21,16,03,25.00
2014,09,21,16,04,25.00
2014,09,21,16,05,25.00
2014,09,21,16,06,25.00
2014,09,21,16,07,25.00
2014,09,21,16,08,25.00
2014,09,21,16,09,25.00
2014,09,21,16,10,24.90
2014,09,21,16,11,24.90
2014,09,21,16,12,24.80
2014,09,21,16,13,24.80
2014,09,21,16,14,24.70
2014,09,21,16,15,24.70
2014,09,21,16,16,24.70
2014,09,21,16,17,24.70
2014,09,21,16,18,24.70
2014,09,21,16,19,24.70
2014,09,21,16,20,24.70
2014,09,21,16,21,24.80
2014,09,21,16,22,24.70
2014,09,21,16,23,24.70
2014,09,21,16,24,24.60
2014,09,21,16,25,24.60
2014,09,21,16,26,24.50
2014,09,21,16,27,24.40
2014,09,21,16,28,24.30
2014,09,21,16,29,24.30
2014,09,21,16,30,24.20
2014,09,21,16,31,24.20
2014,09,21,16,32,24.10
2014,09,21,16,33,24.10
2014,09,21,16,34,24.00
2014,09,21,16,35,24.00
2014,09,21,16,36,24.00
2014,09,21,16,37,24.00
2014,09,21,16,38,23.90
2014,09,21,16,39,24.00
2014,09,21,16,40,24.00
2014,09,21,16,41,24.10
2014,09,21,16,42,24.10
2014,09,21,16,43,24.10
2014,09,21,16,44,24.00
2014,09,21,16,45,23.90
2014,09,21,16,46,23.80
2014,09,21,16,47,23.80
2014,09,21,16,48,23.70
2014,09,21,16,49,23.60
2014,09,21,16,50,23.60
2014,09,21,16,51,23.60
2014,09,21,16,52,23.60
2014,09,21,16,53,23.60
2014,09,21,16,54,23.70
2014,09,21,16,55,23.70
2014,09,21,16,56,23.70
2014,09,21,16,57,23.80
2014,09,21,16,58,23.80
2014,09,21,16,59,23.70
2014,09,21,17,00,23.60
2014,09,21,17,01,23.60
2014,09,21,17,02,23.50
2014,09,21,17,03,23.50
2014,09,21,17,04,23.50
2014,09,21,17,05,23.50
2014,09,21,17,06,23.50
2014,09,21,17,07,23.60
2014,09,21,17,08,23.60
2014,09,21,17,09,23.70
2014,09,21,17,10,23.70
2014,09,21,17,11,23.70
2014,09,21,17,12,23.60
2014,09,21,17,13,23.60
2014,09,21,17,14,23.60
2014,09,21,17,15,23.50
2014,09,21,17,16,23.40
2014,09,21,17,17,23.40
2014,09,21,17,18,23.30
2014,09,21,17,19,23.30